Flag for U.S.A. Weather past 2 weeks in Idaho Falls, Idaho, U.S.A.

Now
64 °F

Scattered clouds.


Feels Like: 64 °F
Forecast: 42 / 65 °F
Wind: 6 mph from South

Location: Fanning Field

Current Time: May 6, 2015 at 2:33:20 PM

Latest Report: May 6, 2015 at 1:53 PM


Visibility: 10 mi

Pressure: 29.69 "Hg

Humidity: 41%

Dew point: 40 °F

Location of Idaho FallsLocation

Historic Weather in Idaho Falls — Graph

°F

Idaho Falls temperature yesterday

Maximum temperature yesterday: 73 °F (at 1:53 PM)
Minimum temperature yesterday: 42 °F (at 4:53 AM)
Average temperature yesterday: 56 °F

Past Weeks' High & Low Weather Summary

 TemperatureHumidityPressure
High78 °F (May 2, 1:53 PM)93% (Apr 26, 4:53 AM)30.33 "Hg (Apr 26, 4:53 AM)
Low29 °F (Apr 27, 6:53 AM)6% (May 1, 5:53 PM)29.57 "Hg (Apr 24, 1:53 PM)
Average54 °F49%29.88 "Hg
* Reported Apr 21 12:53 PM — May 6 12:53 PM, Idaho Falls, Weather by CustomWeather, © 2015

Note: Actual official high and low records may vary slightly from our data, if they occured in-between our weather recording intervals... More about our weather records

Advertising

Idaho Falls weather history for previous 24 hours

 ConditionsComfort  
Time TempWeatherWind HumidityBarometerVisibility
12:53 PM
Wed, May 6
59 °FScattered clouds.No wind46%29.72 "Hg10 mi
11:53 AM58 °FScattered clouds.8 mph47%29.75 "Hg10 mi
10:53 AM53 °FPartly sunny.15 mph51%29.78 "Hg10 mi
9:53 AM51 °FBroken clouds.13 mph48%29.79 "Hg10 mi
8:53 AM47 °FScattered clouds.13 mph54%29.79 "Hg10 mi
7:53 AM46 °FFog.16 mph58%29.79 "Hg10 mi
6:53 AM45 °FFog.13 mph58%29.78 "Hg10 mi
5:53 AM45 °FClear.12 mph56%29.77 "Hg10 mi
4:53 AM43 °FClear.9 mph68%29.75 "Hg10 mi
3:53 AM46 °FClear.9 mph63%29.72 "Hg10 mi
2:53 AM48 °FClear.9 mph80%29.70 "Hg10 mi
1:53 AM44 °FClear.No wind89%29.71 "Hg10 mi
12:53 AM47 °FClear.3 mph86%29.71 "Hg10 mi
11:53 PM
Tue, May 5
49 °FClear.No wind86%29.71 "Hg10 mi
10:53 PM49 °FClear.No wind90%29.73 "Hg10 mi
9:53 PM51 °FSunny.6 mph80%29.73 "Hg10 mi
8:53 PM54 °FSunny.12 mph74%29.71 "Hg10 mi
7:53 PM54 °FPassing clouds.14 mph77%29.73 "Hg10 mi
6:59 PM55 °FMore clouds than sun.18 mph74%29.79 "Hg10 mi
5:53 PM59 °FThundershowers. Mostly cloudy.18 mph62%29.72 "Hg8 mi
4:55 PM67 °FMostly cloudy.10 mph37%29.74 "Hg10 mi
3:53 PM68 °FBroken clouds.7 mph38%29.67 "Hg10 mi
2:53 PM72 °FPartly sunny.7 mph29%29.66 "Hg10 mi
Weather by CustomWeather, © 2015

See weather overviewHow to use our weather pages